Вернуться в каталог

THORAD AGENA D DEB

АктивенLEO
NORAD 18418·DEBRIS·🇺🇸 United States

Запущен Apr 8, 1970 с Vandenberg Space Force Base

Loading…

Ближайшие Пролёты (ближайшие 24 часа)

TLE

СвежийSource: Space-Track

Эпоха: Sep 13, 2026, 10:29 UTC

1 18418U 70025PL  26256.43687425  .00000915  00000-0  92116-3 0  9993
2 18418 100.2002  76.2048 0002476  79.4945 345.9416 13.80606203802824

Отслеживайте THORAD AGENA D DEB в реальном времени с AllMySat

Download on the App Store